TimeEST,TemperatureF,Dew PointF,Humidity,Sea Level PressureIn,VisibilityMPH,Wind Direction,Wind SpeedMPH,Gust SpeedMPH,PrecipitationIn,Events,Conditions,WindDirDegrees,DateUTC
12:15 AM,33.8,32.0,93,29.87,3.0,North,19.6,26.5,0.01,,Overcast,10,2013-03-07 05:15:00
12:35 AM,33.8,32.0,93,29.87,3.0,North,18.4,33.4,0.01,,Overcast,10,2013-03-07 05:35:00
12:55 AM,33.8,32.0,93,29.88,1.8,North,16.1,25.3,0.02,,Overcast,10,2013-03-07 05:55:00
1:15 AM,33.8,32.0,93,29.89,2.0,North,18.4,27.6,0.01,,Overcast,360,2013-03-07 06:15:00
1:35 AM,33.8,32.0,93,29.89,2.5,North,18.4,26.5,0.02,,Overcast,360,2013-03-07 06:35:00
1:55 AM,33.8,32.0,93,29.88,3.0,North,18.4,31.1,0.02,,Overcast,360,2013-03-07 06:55:00
2:15 AM,33.8,32.0,93,29.88,4.0,North,20.7,25.3,N/A,,Overcast,10,2013-03-07 07:15:00
2:35 AM,33.8,30.2,87,29.88,5.0,North,19.6,29.9,N/A,,Overcast,10,2013-03-07 07:35:00
2:55 AM,33.8,32.0,93,29.88,10.0,North,18.4,25.3,N/A,,Overcast,10,2013-03-07 07:55:00
3:15 AM,35.6,30.2,81,29.88,10.0,North,18.4,33.4,N/A,,Mostly Cloudy,10,2013-03-07 08:15:00
3:35 AM,35.6,30.2,81,29.89,10.0,North,19.6,31.1,N/A,,Overcast,10,2013-03-07 08:35:00
3:55 AM,35.6,30.2,81,29.90,10.0,North,23.0,27.6,N/A,,Overcast,10,2013-03-07 08:55:00
4:15 AM,35.6,30.2,81,29.91,10.0,North,18.4,24.2,N/A,,Overcast,360,2013-03-07 09:15:00
4:35 AM,35.6,30.2,81,29.92,8.0,North,16.1,29.9,N/A,,Overcast,360,2013-03-07 09:35:00
4:55 AM,35.6,30.2,81,29.92,5.0,North,19.6,28.8,N/A,,Overcast,10,2013-03-07 09:55:00
5:15 AM,35.6,30.2,81,29.93,8.0,North,13.8,25.3,N/A,,Overcast,360,2013-03-07 10:15:00
5:35 AM,33.8,30.2,87,29.94,5.0,North,16.1,25.3,N/A,,Overcast,360,2013-03-07 10:35:00
5:55 AM,33.8,30.2,87,29.94,7.0,North,21.9,26.5,N/A,,Overcast,360,2013-03-07 10:55:00
6:15 AM,35.6,30.2,81,29.94,10.0,North,17.3,25.3,N/A,,Overcast,360,2013-03-07 11:15:00
6:35 AM,35.6,30.2,81,29.95,10.0,North,16.1,23.0,N/A,,Overcast,360,2013-03-07 11:35:00
7:15 AM,33.8,30.2,87,29.96,8.0,North,18.4,21.9,N/A,,Mostly Cloudy,360,2013-03-07 12:15:00
7:35 AM,33.8,30.2,87,29.96,5.0,North,16.1,24.2,N/A,,Overcast,360,2013-03-07 12:35:00
7:55 AM,35.6,30.2,81,29.97,7.0,North,18.4,23.0,N/A,,Overcast,360,2013-03-07 12:55:00
8:15 AM,35.6,30.2,81,29.97,5.0,North,17.3,23.0,N/A,,Overcast,350,2013-03-07 13:15:00
8:35 AM,35.6,32.0,87,29.98,8.0,North,15.0,23.0,N/A,,Overcast,350,2013-03-07 13:35:00
8:55 AM,35.6,30.2,81,29.99,8.0,NNW,18.4,25.3,N/A,,Overcast,340,2013-03-07 13:55:00
9:15 AM,35.6,32.0,87,29.99,5.0,North,15.0,25.3,N/A,,Overcast,350,2013-03-07 14:15:00
9:35 AM,35.6,32.0,87,29.99,10.0,North,19.6,-,N/A,,Mostly Cloudy,350,2013-03-07 14:35:00
9:55 AM,35.6,32.0,87,29.99,10.0,NNW,18.4,23.0,N/A,,Overcast,340,2013-03-07 14:55:00
10:15 AM,37.4,32.0,81,29.99,10.0,North,21.9,28.8,N/A,,Overcast,350,2013-03-07 15:15:00
10:35 AM,37.4,30.2,75,30.00,10.0,North,20.7,26.5,N/A,,Overcast,350,2013-03-07 15:35:00
10:55 AM,37.4,30.2,75,30.00,10.0,NNW,18.4,28.8,N/A,,Overcast,340,2013-03-07 15:55:00
11:15 AM,37.4,30.2,75,30.00,10.0,North,23.0,29.9,N/A,,Overcast,350,2013-03-07 16:15:00
11:35 AM,39.2,30.2,70,30.00,10.0,North,20.7,-,N/A,,Overcast,350,2013-03-07 16:35:00
11:55 AM,39.2,30.2,70,30.00,10.0,NNW,19.6,27.6,N/A,,Overcast,340,2013-03-07 16:55:00
12:15 PM,39.2,32.0,75,30.01,10.0,North,18.4,26.5,N/A,,Mostly Cloudy,350,2013-03-07 17:15:00
12:35 PM,37.4,35.6,93,30.00,10.0,NNW,16.1,24.2,N/A,,Mostly Cloudy,340,2013-03-07 17:35:00
12:55 PM,37.4,35.6,93,30.00,10.0,NNW,19.6,24.2,N/A,,Overcast,340,2013-03-07 17:55:00
1:15 PM,37.4,35.6,93,30.00,10.0,NNW,17.3,25.3,N/A,,Overcast,340,2013-03-07 18:15:00
1:35 PM,37.4,33.8,87,30.01,10.0,NNW,19.6,27.6,0.01,,Mostly Cloudy,340,2013-03-07 18:35:00
1:55 PM,37.4,35.6,93,30.00,10.0,NNW,15.0,21.9,0.01,,Overcast,340,2013-03-07 18:55:00
2:15 PM,37.4,35.6,93,30.01,10.0,NNW,15.0,23.0,N/A,,Mostly Cloudy,340,2013-03-07 19:15:00
2:35 PM,37.4,33.8,87,30.01,10.0,NNW,15.0,21.9,N/A,,Overcast,340,2013-03-07 19:35:00
2:55 PM,37.4,33.8,87,30.02,10.0,North,13.8,-,N/A,,Mostly Cloudy,350,2013-03-07 19:55:00
3:15 PM,37.4,33.8,87,30.02,10.0,NNW,18.4,24.2,N/A,,Overcast,340,2013-03-07 20:15:00
3:35 PM,37.4,33.8,87,30.02,10.0,NNW,18.4,24.2,N/A,,Overcast,340,2013-03-07 20:35:00
3:55 PM,37.4,33.8,87,30.03,10.0,NNW,16.1,23.0,N/A,,Mostly Cloudy,340,2013-03-07 20:55:00
4:15 PM,37.4,35.6,93,30.04,9.0,NNW,11.5,-,N/A,,Overcast,340,2013-03-07 21:15:00
4:35 PM,37.4,35.6,93,30.04,10.0,NNW,16.1,21.9,N/A,,Overcast,340,2013-03-07 21:35:00
4:55 PM,35.6,33.8,93,30.04,7.0,NNW,12.7,23.0,N/A,,Overcast,340,2013-03-07 21:55:00
5:15 PM,35.6,33.8,93,30.05,8.0,North,13.8,19.6,0.01,,Overcast,350,2013-03-07 22:15:00
5:35 PM,35.6,33.8,93,30.05,7.0,NNW,13.8,-,0.01,,Overcast,340,2013-03-07 22:35:00
5:55 PM,35.6,33.8,93,30.06,9.0,NNW,13.8,-,0.01,,Overcast,330,2013-03-07 22:55:00
6:15 PM,35.6,33.8,93,30.06,10.0,NNW,13.8,19.6,N/A,,Overcast,330,2013-03-07 23:15:00
6:35 PM,35.6,33.8,93,30.06,10.0,NNW,15.0,20.7,N/A,,Overcast,340,2013-03-07 23:35:00
6:55 PM,35.6,33.8,93,30.06,10.0,NNW,15.0,20.7,N/A,,Overcast,340,2013-03-07 23:55:00
7:15 PM,35.6,33.8,93,30.07,10.0,NNW,17.3,-,N/A,,Overcast,340,2013-03-08 00:15:00
7:35 PM,35.6,33.8,93,30.07,10.0,NNW,13.8,18.4,0.01,,Overcast,340,2013-03-08 00:35:00
7:55 PM,35.6,33.8,93,30.07,10.0,NNW,12.7,17.3,0.01,,Overcast,340,2013-03-08 00:55:00
8:15 PM,35.6,33.8,93,30.07,10.0,NNW,13.8,-,N/A,,Overcast,330,2013-03-08 01:15:00
8:35 PM,35.6,33.8,93,30.07,10.0,NNW,12.7,-,N/A,,Overcast,340,2013-03-08 01:35:00
8:55 PM,35.6,33.8,93,30.07,10.0,NNW,10.4,-,N/A,,Overcast,340,2013-03-08 01:55:00
9:15 PM,33.8,33.8,100,30.06,10.0,NNW,11.5,-,N/A,,Overcast,340,2013-03-08 02:15:00
9:35 PM,33.8,33.8,100,30.06,10.0,NNW,9.2,-,N/A,,Overcast,330,2013-03-08 02:35:00
9:55 PM,33.8,33.8,100,30.06,10.0,NW,10.4,-,N/A,,Overcast,320,2013-03-08 02:55:00
10:15 PM,33.8,33.8,100,30.06,10.0,NNW,11.5,-,N/A,,Overcast,330,2013-03-08 03:15:00
10:35 PM,33.8,33.8,100,30.06,10.0,NNW,10.4,-,N/A,,Overcast,340,2013-03-08 03:35:00
10:55 PM,33.8,33.8,100,30.05,9.0,NNW,11.5,-,N/A,,Overcast,340,2013-03-08 03:55:00
11:15 PM,33.8,32.0,93,30.05,8.0,NNW,9.2,-,N/A,,Overcast,330,2013-03-08 04:15:00
11:35 PM,33.8,32.0,93,30.05,9.0,NW,9.2,-,N/A,,Overcast,320,2013-03-08 04:35:00
11:55 PM,33.8,32.0,93,30.05,8.0,NW,10.4,-,N/A,,Overcast,320,2013-03-08 04:55:00